Regional Weather Roundup
Issued by NWS

Home | Current Version | Previous Version | Graphics & Text | Print | Product List | Glossary On
Versions: 1 2 3 4 5 6 7 8 9 10 11 12 13 14 15 16 17 18 19 20 21 22 23 24 25 26 27 28 29 30 31 32 33 34 35 36 37 38 39 40 41 42 43 44 45 46 47 48 49 50
318
ASUS44 KMEG 241000
RWRTN
TENNESSEE HOURLY STATE WEATHER ROUNDUP
NATIONAL WEATHER SERVICE MEMPHIS TN
500 AM CDT FRI MAR 24 2017

TNZ002-004-019-021-049-052-054-088>092-241100-
WEST TENNESSEE

CITY           SKY/WX    TMP DP  RH WIND       PRES   REMARKS
MEMPHIS INTL   CLEAR     68  58  70 S14       30.08S
NWS MEMPHIS      N/A     66 N/A N/A MISG        N/A
JACKSON        PTCLDY    65  57  75 S12G24    30.12F
DYERSBURG      CLEAR     65  57  75 S10       30.09R
PARIS          CLEAR     61  52  72 S16       30.13S
$$

TNZ008-025-027-028-033-062-065-066-241100-
NORTH MIDDLE TENNESSEE

CITY           SKY/WX    TMP DP  RH WIND       PRES   REMARKS
NASHVILLE      MOCLDY    60  47  61 S15       30.23R
CLARKSVILLE    CLEAR     60  50  69 MISG      30.15S
SMYRNA         CLEAR     58  46  64 S10       30.24S
CROSSVILLE     PTCLDY    53  39  59 S12G20    30.30S
$$

TNZ061-075-076-078-094-096-097-241100-
SOUTH MIDDLE TENNESSEE

CITY           SKY/WX    TMP DP  RH WIND       PRES   REMARKS
TULLAHOMA      CLOUDY    57  45  62 S7        30.27S
WINCHESTER     CLOUDY    57  46  67 SE17      30.27F
COLUMBIA       CLOUDY    61  54  77 S14       30.21R
SHELBYVILLE    CLOUDY    61  48  63 S14       30.26S
$$

TNZ017-018-042-046-047-241100-
NORTHEAST TENNESSEE

CITY           SKY/WX    TMP DP  RH WIND       PRES   REMARKS
TRI CITIES     MOCLDY    51  30  44 SE3       30.37S
$$

TNZ012-013-036-069-073-074-241100-
CENTRAL EAST TENNESSEE

CITY           SKY/WX    TMP DP  RH WIND       PRES   REMARKS
KNOXVILLE      CLOUDY    56  39  53 N3        30.32S
OAK RIDGE      CLOUDY    58  35  42 CALM      30.35R
GATLINBURG     CLOUDY    43  39  87 CALM      30.33F
$$

TNZ083-085-099-241100-
SOUTHEAST TENNESSEE

CITY           SKY/WX    TMP DP  RH WIND       PRES   REMARKS
CHATTANOOGA    CLOUDY    58  38  47 S8        30.35R
$$

SKY/WX REPORTED AS FAIR MEANS FEW OR NO CLOUDS BELOW
12 THOUSAND FEET.





USA.gov is the U.S. government's official web portal to all federal, state and local government web resources and services.